Kangerlussuaq, Greenland

6:26 PM -03 on November 23, 2017 (GMT -0300)
Kangerlussuaq

Weather History for BGSF - April, 2014

Change the Weather History Date:

Saturday, April 12, 2014

  Actual Average Record
Temperature  
Mean Temperature 26 °F -  
Max Temperature 37 °F 35 °F 55 °F (2016)
Min Temperature 14 °F 17 °F -14 °F (2011)
Degree Days  
Heating Degree Days 40    
Moisture  
Dew Point 11 °F    
Average Humidity 51    
Maximum Humidity 79    
Minimum Humidity 15    
Precipitation  
Precipitation 0.00 in 0.01 in - ()
Sea Level Pressure  
Sea Level Pressure 29.38 in    
Wind  
Wind Speed 7 mph ()    
Max Wind Speed 13 mph    
Max Gust Speed -    
Visibility 6.2 miles    
Events      
Averages and records for this station are not official NWS values.
T = Trace of Precipitation, MM = Missing Value Source: Averaged Metar Reports

Daily Weather History Graph

Daily Weather History Graph

Search for Another Location

Airport or City:

Trip Planner

Search our weather history database for the weather conditions in past years. The results will help you decide how hot, cold, wet, or windy it might be!

Date:

Astronomy

Apr. 12, 2014 Rise Set
Actual Time 5:49 AM -02 8:59 PM -02
Civil Twilight 4:47 AM -02 10:03 PM -02
Nautical Twilight 3:08 AM -02 11:46 PM -02
Astronomical Twilight Sun does not rise Sun does not rise
Moon 5:32 PM -02 (4/12) 5:24 AM -02 (4/12)
Length of Visible Light 17h 16m
Length of Day
15h 10m
Waxing Gibbous, 92% of the Moon is Illuminated
Apr 12
Waxing Gibbous
Apr 15
Full
Apr 22
Last Quarter
Apr 29
New
May 7
First Quarter

Hourly Weather History & Observations

Time (-02) Temp. Windchill Dew Point Humidity Pressure Visibility Wind Dir Wind Speed Gust Speed Precip Events Conditions
12:00 AM 21 °F - 7 °F 39% 29.46 in 31 mi NE 6.9 mph - -  
12:20 AM 21.2 °F 10.9 °F 8.6 °F 58% 29.42 in 6.2 mi East 9.2 mph - N/A   Unknown
12:50 AM 21.2 °F 10.1 °F 8.6 °F 58% 29.44 in 6.2 mi East 10.4 mph - N/A   Unknown
1:00 AM 20 °F - 7 °F 44% 29.46 in 31 mi NE 9.2 mph - -  
1:20 AM 19.4 °F 9.5 °F 8.6 °F 63% 29.42 in 6.2 mi ENE 8.1 mph - N/A   Unknown
1:50 AM 19.4 °F 10.4 °F 8.6 °F 63% 29.42 in 6.2 mi East 6.9 mph - N/A   Partly Cloudy
2:00 AM 17 °F - 7 °F 52% 29.45 in 28 mi East 9.2 mph - -   Scattered Clouds
2:20 AM 15.8 °F 4.2 °F 8.6 °F 73% 29.42 in 6.2 mi ENE 9.2 mph - N/A   Unknown
2:50 AM 14.0 °F 2.9 °F 8.6 °F 79% 29.42 in 6.2 mi ENE 8.1 mph - N/A   Unknown
3:00 AM 15 °F - 7 °F 60% 29.45 in 28 mi East 9.2 mph - -  
3:20 AM 15.8 °F 4.2 °F 8.6 °F 73% 29.42 in 6.2 mi ENE 9.2 mph - N/A   Unknown
3:50 AM 15.8 °F 4.2 °F 6.8 °F 68% 29.42 in 6.2 mi ENE 9.2 mph - N/A   Unknown
4:00 AM 16 °F - 6 °F 51% 29.45 in 31 mi ENE 9.2 mph - -  
4:20 AM 15.8 °F 4.2 °F 6.8 °F 68% 29.42 in 6.2 mi ENE 9.2 mph - N/A   Unknown
4:50 AM 14.0 °F 2.0 °F 6.8 °F 73% 29.42 in 6.2 mi East 9.2 mph - N/A   Unknown
5:00 AM 14 °F - 5 °F 55% 29.45 in 31 mi East 8.1 mph - -  
5:20 AM 14.0 °F 1.2 °F 6.8 °F 73% 29.42 in 6.2 mi ENE 10.4 mph - N/A   Unknown
5:50 AM 14.0 °F 1.2 °F 5.0 °F 67% 29.42 in 6.2 mi ENE 10.4 mph - N/A   Unknown
6:00 AM 14 °F - 4 °F 53% 29.45 in 31 mi ENE 10.4 mph - -  
6:20 AM 14.0 °F 1.2 °F 5.0 °F 67% 29.42 in 6.2 mi East 10.4 mph - N/A   Unknown
6:50 AM 15.8 °F 6.1 °F 6.8 °F 68% 29.42 in 6.2 mi ENE 6.9 mph - N/A   Unknown
7:00 AM 16 °F - 4 °F 46% 29.44 in 31 mi East 12.7 mph - -  
7:20 AM 17.6 °F 4.3 °F 6.8 °F 63% 29.42 in 6.2 mi East 12.7 mph - N/A   Unknown
7:50 AM 17.6 °F 6.4 °F 6.8 °F 63% 29.42 in 6.2 mi East 9.2 mph - N/A   Unknown
8:00 AM 18 °F - 6 °F 44% 29.44 in 28 mi East 9.2 mph - -  
8:20 AM 19.4 °F 7.9 °F 8.6 °F 63% 29.42 in 6.2 mi East 10.4 mph - N/A   Unknown
8:50 AM 21.2 °F 11.7 °F 8.6 °F 58% 29.42 in 6.2 mi East 8.1 mph - N/A   Partly Cloudy
9:00 AM 21 °F - 6 °F 38% 29.43 in 22 mi East 9.2 mph - -   Partly Cloudy
9:20 AM 23.0 °F 13.9 °F 8.6 °F 54% 29.39 in 6.2 mi ENE 8.1 mph - N/A   Mostly Cloudy
9:50 AM 23.0 °F 13.9 °F 8.6 °F 54% 29.39 in 6.2 mi East 8.1 mph - N/A   Unknown
10:00 AM 24 °F - 6 °F 31% 29.41 in 47 mi East 6.9 mph - -   Mostly Cloudy
10:20 AM 24.8 °F 16.1 °F 8.6 °F 50% 29.39 in 6.2 mi East 8.1 mph - N/A   Scattered Clouds
10:50 AM 26.6 °F 20.0 °F 8.6 °F 47% 29.39 in 6.2 mi East 5.8 mph - N/A   Partly Cloudy
11:00 AM 26 °F - 6 °F 27% 29.40 in 25 mi East 5.8 mph - -   Scattered Clouds
11:20 AM 26.6 °F 20.0 °F 8.6 °F 47% 29.39 in 6.2 mi East 5.8 mph - N/A   Partly Cloudy
11:50 AM 28.4 °F 22.2 °F 10.4 °F 47% 29.36 in 6.2 mi East 5.8 mph - N/A   Partly Cloudy
12:00 PM 28 °F - 7 °F 26% 29.39 in 22 mi East 5.8 mph - -   Scattered Clouds
12:20 PM 28.4 °F 23.3 °F 10.4 °F 47% 29.36 in 6.2 mi ESE 4.6 mph - N/A   Mostly Cloudy
12:50 PM 30.2 °F 24.3 °F 10.4 °F 44% 29.36 in 6.2 mi East 5.8 mph - N/A   Mostly Cloudy
1:00 PM 30 °F - 8 °F 26% 29.37 in 22 mi East 5.8 mph - -   Scattered Clouds
1:20 PM 30.2 °F 23.4 °F 10.4 °F 44% 29.36 in 6.2 mi ENE 6.9 mph - N/A   Mostly Cloudy
1:50 PM 32.0 °F 24.8 °F 12.2 °F 44% 29.33 in 6.2 mi East 8.1 mph - N/A   Mostly Cloudy
2:00 PM 31 °F - 9 °F 25% 29.35 in 22 mi East 8.1 mph - -   Scattered Clouds
2:20 PM 32.0 °F 25.6 °F 12.2 °F 44% 29.33 in 6.2 mi East 6.9 mph - N/A   Scattered Clouds
2:50 PM 33.8 °F 28.6 °F 14.0 °F 44% 29.33 in 6.2 mi East 5.8 mph - N/A   Scattered Clouds
3:00 PM 33 °F - 8 °F 22% 29.35 in 28 mi East 4.6 mph - -   Mostly Cloudy
3:20 PM 33.8 °F 28.6 °F 12.2 °F 41% 29.33 in 6.2 mi ENE 5.8 mph - N/A   Mostly Cloudy
3:50 PM 35.6 °F 30.7 °F 12.2 °F 38% 29.33 in 6.2 mi ENE 5.8 mph - N/A   Partly Cloudy
4:00 PM 35 °F - 7 °F 18% 29.34 in 22 mi East 5.8 mph - -   Partly Cloudy
4:20 PM 35.6 °F 30.7 °F 12.2 °F 38% 29.33 in 6.2 mi East 5.8 mph - N/A   Partly Cloudy
4:50 PM 35.6 °F 29.9 °F 12.2 °F 38% 29.33 in 6.2 mi East 6.9 mph - N/A   Scattered Clouds
5:00 PM 36 °F - 8 °F 18% 29.33 in 28 mi East 6.9 mph - -   Partly Cloudy
5:20 PM 37.4 °F 34.9 °F 12.2 °F 36% 29.33 in 6.2 mi East 3.5 mph - N/A   Mostly Cloudy
5:50 PM 37.4 °F - 10.4 °F 33% 29.33 in 6.2 mi East 2.3 mph - N/A   Mostly Cloudy
6:00 PM 37 °F - 7 °F 15% 29.34 in 28 mi West 2.3 mph - -   Scattered Clouds
6:20 PM 33.8 °F 27.7 °F 23.0 °F 65% 29.33 in 6.2 mi WSW 6.9 mph - N/A   Mostly Cloudy
6:50 PM 32.0 °F - 21.2 °F 64% 29.33 in 6.2 mi WSW 1.2 mph - N/A   Overcast
7:00 PM 32 °F - 20 °F 50% 29.34 in 28 mi WSW 2.3 mph - -   Partly Cloudy
7:20 PM 32.0 °F - 19.4 °F 60% 29.33 in 6.2 mi West 2.3 mph - N/A   Overcast
7:50 PM 33.8 °F 30.8 °F 21.2 °F 60% 29.33 in 6.2 mi ENE 3.5 mph - N/A   Overcast
8:00 PM 33 °F - 19 °F 43% 29.34 in 31 mi East 3.5 mph - -   Scattered Clouds
8:20 PM 33.8 °F 30.8 °F 21.2 °F 60% 29.33 in 6.2 mi East 3.5 mph - N/A   Mostly Cloudy
8:50 PM 33.8 °F 28.6 °F 21.2 °F 60% 29.33 in 6.2 mi NE 5.8 mph - N/A   Overcast
9:00 PM 33 °F - 18 °F 42% 29.35 in 31 mi ENE 6.9 mph - -   Mostly Cloudy
9:20 PM 32.0 °F 24.8 °F 23.0 °F 69% 29.33 in 6.2 mi ENE 8.1 mph - N/A   Overcast
9:50 PM 32.0 °F 26.4 °F 23.0 °F 69% 29.36 in 6.2 mi ENE 5.8 mph - N/A   Overcast
10:00 PM 33 °F - 21 °F 49% 29.37 in 31 mi ENE 4.6 mph - -   Overcast
10:20 PM 33.8 °F 28.6 °F 23.0 °F 65% 29.36 in 6.2 mi ENE 5.8 mph - N/A   Overcast
10:50 PM 32.0 °F 25.6 °F 24.8 °F 75% 29.36 in 6.2 mi ENE 6.9 mph - N/A   Overcast
11:00 PM 33 °F - 23 °F 55% 29.39 in 31 mi ENE 6.9 mph - -   Mostly Cloudy
11:20 PM 32.0 °F 25.6 °F 23.0 °F 69% 29.39 in 6.2 mi ENE 6.9 mph - N/A   Overcast
11:50 PM 33.8 °F 25.3 °F 17.6 °F 52% 29.42 in 4.3 mi WSW 11.5 mph - N/A   Overcast